Погода в Горном Зерентуе

Россия / Забайкальский край     51°12′47″N   119°31′15″E
темп.,
°C
ветер,
м/с
пор.,
м/с
влажн.,
%
обл.,
%
осадки,
мм/ч
давл.,
гПа
погр.,
м
9 мая, вс
вс900:00+3с22665 0.0 100718
03:00+1ссз22755 0.0 100811
06:00+1ссз11775 0.0 100913
09:00+7с12545 0.0 1009749
12:00+11сз2433100 0.0 10072516
15:00+12зсз342999 0.0 10062427
18:00+13зсз232457 0.0 10052708
21:00+9ююз224436 0.0 100717
10 мая, пн
пн1000:00+6ююв005028 0.0 100810
03:00+4всв115539 0.0 100910
06:00+4всв1157100 0.0 101013
09:00+9ююв2348100 0.1 1010570
12:00+13ю344197 0.1 10082044
15:00+14ююз3537100 0.3 10072164
18:00+14ссв2135100 0.0 1005587
21:00+9сз2274100 0.4 100847
11 мая, вт
вт1100:00+8ссв2275100 0.2 100763
03:00+7с3588100 3.8 1006203
06:00+5ссв3792100 0.1 1005244
09:00+8св6877100 0.1 1003636
12:00+9св7872100 0.1 1001891
15:00+6ссв81289100 8.7 999728
18:00+4ссв91595100 11.2 998773
21:00+2с71697100 19.6 998709
12 мая, ср
ср1200:00+3с61497100 2.8 998794
03:00+3с51397100 5.0 998881
06:00+4ссз91680100 1.1 999963
09:00+6ссз9157567 1.1 10001132
12:00+11ссз101550100 0.0 10001627
15:00+14ссз714346 0.0 10002784
18:00+15сз4842100 0.0 10002053
21:00+8сз22485 0.0 100312
13 мая, чт
чт1300:00+6з214670 0.0 100510
03:00+5з115130 0.0 100610
06:00+4ююз22595 0.0 100610
09:00+11юз3647100 0.0 1005520
12:00+15зюз61036100 0.0 10022790
15:00+12з6954100 0.7 10031620
18:00+11з5844100 0.2 10021901
21:00+7сз5967100 0.3 1004517